This demonstration page uses our WeatherBlox Daily Observations layout. Learn more.

Left ArrowRight Arrow

Hourly Observations for January 8, 2017

Temp ( °F °C ) Dew Point ( °F °C ) Humidity (%) Winds ( mph kmh ) Pressure ( in mb ) Visibility ( mi km ) Precip ( " mm )
12:15 am 00:15 Clear 7 -14.1 2 -16.5 82 82 SSE 10 17 30.71 1040 10 16 0.00 0.00
12:35 am 00:35 Clear 7 -13.8 3 -16.1 83 83 SSE 10 17 30.68 1039 10 16 0.00 0.00
12:55 am 00:55 Clear 8 -13.1 4 -15.5 82 82 SSE 7 11 30.68 1039 10 16 0.00 0.00
1:15 am 01:15 Clear 9 -12.7 5 -15.1 82 82 SSE 8 13 30.65 1038 10 16 0.00 0.00
1:35 am 01:35 Clear 10 -12.5 5 -14.9 82 82 SSE 10 17 30.65 1038 10 16 0.00 0.00
1:55 am 01:55 Clear 11 -11.8 6 -14.2 83 83 SSE 13 20 30.65 1038 10 16 0.00 0.00
2:15 am 02:15 Clear 11 -11.5 7 -14 82 82 SSE 8 13 30.65 1038 10 16 0.00 0.00
2:35 am 02:35 Clear 11 -11.5 7 -14 82 82 SSE 12 19 30.68 1039 10 16 0.00 0.00
2:55 am 02:55 Clear 12 -11.2 7 -14 80 80 SSE 14 22 30.65 1038 10 16 0.00 0.00
3:15 am 03:15 Clear 12 -11.2 7 -13.8 81 81 SSE 15 24 30.62 1037 10 16 0.00 0.00
3:35 am 03:35 Partly Cloudy 12 -11.2 7 -13.7 82 82 SSE 14 22 30.59 1036 10 16 0.00 0.00
3:55 am 03:55 Cloudy 13 -10.8 8 -13.4 81 81 SSE 18 30 30.56 1035 10 16 0.00 0.00
4:15 am 04:15 Cloudy 13 -10.6 8 -13.1 82 82 SE 17 28 30.53 1034 10 16 0.00 0.00
4:35 am 04:35 Partly Cloudy 13 -10.5 9 -13 82 82 SE 20 31 30.50 1033 10 16 0.00 0.00
4:55 am 04:55 Partly Cloudy 13 -10.6 8 -13.1 82 82 SSE 16 26 30.50 1033 10 16 0.00 0.00
5:15 am 05:15 Clear 13 -10.3 9 -13 81 81 SSE 21 33 30.48 1032 10 16 0.00 0.00
5:35 am 05:35 Partly Cloudy 14 -9.9 10 -12.5 82 82 SSE 18 30 30.45 1031 10 16 0.00 0.00
5:55 am 05:55 Mostly Cloudy 15 -9.6 10 -12.5 80 80 SSE 24 39 30.42 1030 10 16 0.00 0.00
6:15 am 06:15 Cloudy 15 -9.3 10 -12 81 81 SSE 21 33 30.42 1030 10 16 0.00 0.00
6:35 am 06:35 Cloudy 16 -9.1 11 -11.8 81 81 SSE 17 28 30.42 1030 10 16 0.00 0.00
6:55 am 06:55 Cloudy 16 -9 11 -11.9 80 80 S 23 37 30.42 1030 10 16 0.00 0.00
7:15 am 07:15 Cloudy 16 -9.1 11 -11.8 81 81 S 18 30 30.42 1030 10 16 0.00 0.00
7:35 am 07:35 Cloudy 15 -9.2 11 -11.7 82 82 S 15 24 30.42 1030 10 16 0.00 0.00
7:55 am 07:55 Partly Cloudy 15 -9.4 10 -12 82 82 S 17 28 30.39 1029 10 16 0.00 0.00
8:15 am 08:15 Sunny 14 -9.9 10 -12.1 84 84 S 20 31 30.39 1029 10 16 0.00 0.00
8:35 am 08:35 Sunny 14 -10 10 -12.1 85 85 SSE 15 24 30.39 1029 10 16 0.00 0.00
8:55 am 08:55 Sunny 14 -9.8 10 -12 84 84 SSE 16 26 30.36 1028 10 16 0.00 0.00
9:15 am 09:15 Sunny 15 -9.5 11 -11.6 85 85 SSE 20 31 30.36 1028 10 16 0.00 0.00
9:35 am 09:35 Sunny 16 -9 12 -11.2 84 84 S 16 26 30.39 1029 10 16 0.00 0.00
9:55 am 09:55 Sunny 17 -8.2 13 -10.7 82 82 SSE 13 20 30.39 1029 10 16 0.00 0.00
10:15 am 10:15 Sunny 18 -7.6 13 -10.5 80 80 S 18 30 30.33 1027 10 16 0.00 0.00
10:35 am 10:35 Sunny 20 -6.9 14 -10 79 79 S 18 30 30.33 1027 10 16 0.00 0.00
10:55 am 10:55 Sunny 21 -5.9 14 -9.9 74 74 SSW 17 28 30.33 1027 10 16 0.00 0.00
11:15 am 11:15 Sunny 23 -5.1 15 -9.4 72 72 SSW 18 30 30.33 1027 10 16 0.00 0.00
11:35 am 11:35 Sunny 24 -4.2 16 -9.1 69 69 SSW 20 31 30.27 1025 10 16 0.00 0.00
11:55 am 11:55 Sunny 25 -3.8 16 -8.8 69 69 SSW 14 22 30.27 1025 10 16 0.00 0.00
12:15 pm 12:15 Sunny 26 -3.6 17 -8.6 69 69 SW 16 26 30.27 1025 10 16 0.00 0.00
12:35 pm 12:35 Sunny 26 -3.2 17 -8.1 69 69 SW 16 26 30.27 1025 10 16 0.00 0.00
12:55 pm 12:55 Sunny 27 -2.9 18 -8 68 68 SW 17 28 30.27 1025 10 16 0.00 0.00
1:15 pm 13:15 Sunny 28 -2.5 18 -7.6 68 68 SW 16 26 30.21 1023 10 16 0.00 0.00
1:35 pm 13:35 Sunny 29 -1.9 19 -7.4 66 66 SW 12 19 30.24 1024 10 16 0.00 0.00
1:55 pm 13:55 Sunny 30 -1.1 19 -7.1 64 64 SW 10 17 30.24 1024 10 16 0.00 0.00
2:15 pm 14:15 Sunny 31 -0.4 20 -6.5 64 64 WSW 9 15 30.21 1023 10 16 0.00 0.00
2:35 pm 14:35 Sunny 32 0.1 21 -6.2 63 63 WSW 9 15 30.24 1024 10 16 0.00 0.00
2:55 pm 14:55 Sunny 33 0.3 21 -6.1 63 63 WSW 8 13 30.24 1024 10 16 0.00 0.00
3:15 pm 15:15 Sunny 33 0.5 21 -5.9 63 63 W 13 20 30.24 1024 10 16 0.00 0.00
3:35 pm 15:35 Sunny 33 0.4 22 -5.8 64 64 W 7 11 30.24 1024 10 16 0.00 0.00
3:55 pm 15:55 Sunny 32 0.2 21 -5.9 64 64 W 9 15 30.24 1024 10 16 0.00 0.00
4:15 pm 16:15 Sunny 32 0.1 21 -6 64 64 WSW 8 13 30.24 1024 10 16 0.00 0.00
4:35 pm 16:35 Sunny 32 0.1 22 -5.8 65 65 WSW 6 9 30.24 1024 10 16 0.00 0.00
4:55 pm 16:55 Sunny 32 -0.1 21 -6.1 64 64 WSW 7 11 30.24 1024 10 16 0.00 0.00
5:15 pm 17:15 Sunny 31 -0.5 21 -6.2 66 66 WSW 6 9 30.24 1024 10 16 0.00 0.00
5:35 pm 17:35 Clear 30 -1.3 20 -6.5 68 68 WSW 5 7 30.24 1024 10 16 0.00 0.00
5:55 pm 17:55 Clear 29 -1.8 20 -6.9 68 68 WSW 5 7 30.24 1024 10 16 0.00 0.00
6:15 pm 18:15 Clear 29 -1.8 20 -6.9 68 68 SW 3 6 30.24 1024 10 16 0.00 0.00
6:35 pm 18:35 Clear 28 -2 20 -6.8 70 70 SW 3 6 30.27 1025 10 16 0.00 0.00
6:55 pm 18:55 Clear 28 -2.3 19 -7 70 70 WSW 5 7 30.30 1026 10 16 0.00 0.00
7:15 pm 19:15 Clear 28 -2.3 19 -7 70 70 W 5 7 30.30 1026 10 16 0.00 0.00
7:35 pm 19:35 Clear 28 -2.2 20 -6.9 71 71 W 5 7 30.30 1026 10 16 0.00 0.00
7:55 pm 19:55 Clear 26 -3.3 18 -7.6 72 72 WSW 5 7 30.33 1027 10 16 0.00 0.00
8:15 pm 20:15 Clear 27 -2.8 19 -7.1 73 73 W 5 7 30.33 1027 10 16 0.00 0.00
8:35 pm 20:35 Clear 25 -3.7 18 -7.7 74 74 W 6 9 30.33 1027 10 16 0.00 0.00
8:55 pm 20:55 Clear 25 -4 18 -7.7 76 76 W 5 7 30.33 1027 10 16 0.00 0.00
9:15 pm 21:15 Clear 24 -4.2 17 -8.1 75 75 W 5 7 30.33 1027 10 16 0.00 0.00
9:35 pm 21:35 Clear 21 -5.9 15 -9.2 78 78 W 3 6 30.36 1028 10 16 0.00 0.00
9:55 pm 21:55 Clear 22 -5.6 17 -8.6 80 80 NNW 5 7 30.36 1028 10 16 0.00 0.00
10:15 pm 22:15 Clear 22 -5.7 17 -8.3 82 82 Calm 30.36 1028 10 16 0.00 0.00
10:35 pm 22:35 Clear 18 -7.7 14 -10.2 82 82 Calm 30.39 1029 10 16 0.00 0.00
10:55 pm 22:55 Clear 21 -6.2 17 -8.5 84 84 N 5 7 30.36 1028 10 16 0.00 0.00
11:15 pm 23:15 Clear 22 -5.5 18 -7.7 85 85 NNE 5 7 30.36 1028 10 16 0.00 0.00
11:35 pm 23:35 Partly Cloudy 21 -5.9 17 -8.6 81 81 Calm 30.36 1028 10 16 0.00 0.00
11:55 pm 23:55 Partly Cloudy 22 -5.7 18 -8 84 84 Calm 30.36 1028 10 16 0.00 0.00

Powered by AerisWeather